San Antonio Stinson, TX

8:53 AM CDT on April 21, 2018 (GMT -0500)
Stinson Municipal

Weather History for KSSF - March, 2013

Change the Weather History Date:

Sunday, March 10, 2013

  Actual Average Record
Temperature  
Mean Temperature 62 °F -  
Max Temperature 69 °F 68 °F 93 °F (2006)
Min Temperature 51 °F 50 °F 43 °F (2002)
Degree Days  
Heating Degree Days 4    
Growing Degree Days 12 (Base 50)    
Moisture  
Dew Point 42 °F    
Average Humidity 52    
Maximum Humidity 97    
Minimum Humidity 23    
Precipitation  
Precipitation 0.05 in - - ()
Sea Level Pressure  
Sea Level Pressure 29.88 in    
Wind  
Wind Speed 9 mph (NNW)    
Max Wind Speed 17 mph    
Max Gust Speed 25 mph    
Visibility 9 miles    
Events Rain , Thunderstorm    
Averages and records for this station are not official NWS values.
T = Trace of Precipitation, MM = Missing Value Source: NWS Daily Summary

Daily Weather History Graph

Daily Weather History Graph

Search for Another Location

Airport or City:

Astronomy

Mar. 10, 2013 Rise Set
Actual Time 7:49 AM CDT 7:39 PM CDT
Civil Twilight 7:25 AM CDT 8:03 PM CDT
Nautical Twilight 6:57 AM CDT 8:30 PM CDT
Astronomical Twilight 6:30 AM CDT 8:58 PM CDT
Moon 6:47 AM CDT (3/10) 6:49 PM CDT (3/10)
Length of Visible Light 12h 37m
Length of Day
11h 50m
Waning Crescent, 2% of the Moon is Illuminated
Mar 10
Waning Crescent
Mar 11
New
Mar 19
First Quarter
Mar 27
Full
Apr 2
Last Quarter

Hourly Weather History & Observations

Time (CDT) Temp. Dew Point Humidity Pressure Visibility Wind Dir Wind Speed Gust Speed Precip Events Conditions
12:53 AM 68.0 °F 63.0 °F 84% 29.66 in 10.0 mi SSE 8.1 mph - N/A   Overcast
1:08 AM 68.0 °F 62.6 °F 83% 29.73 in 9.0 mi WSW 10.4 mph - N/A Thunderstorm Overcast
1:23 AM 66.2 °F 64.4 °F 94% 29.74 in 1.8 mi West 8.1 mph - 0.04 in Rain , Thunderstorm Heavy Rain
1:29 AM 66.2 °F 64.4 °F 94% 29.74 in 2.0 mi WNW 10.4 mph - 0.05 in Rain Light Rain
1:38 AM 64.4 °F 62.6 °F 94% 29.74 in 6.0 mi North 10.4 mph - 0.05 in Rain Light Rain
1:53 AM 63.0 °F 62.1 °F 97% 29.71 in 5.0 mi North 6.9 mph - 0.05 in Rain Light Rain
3:53 AM 62.1 °F 60.1 °F 93% 29.71 in 10.0 mi NNW 10.4 mph 17.3 mph 0.00 in   Overcast
4:53 AM 63.0 °F 53.1 °F 70% 29.72 in 10.0 mi NNW 9.2 mph 19.6 mph N/A   Overcast
5:53 AM 62.1 °F 54.0 °F 75% 29.74 in 10.0 mi NNE 5.8 mph - N/A   Overcast
7:53 AM 61.0 °F 43.0 °F 52% 29.82 in 10.0 mi North 6.9 mph - N/A   Overcast
8:53 AM 61.0 °F 42.1 °F 50% 29.85 in 10.0 mi NNW 5.8 mph - N/A   Overcast
9:53 AM 63.0 °F 39.9 °F 43% 29.89 in 10.0 mi NNW 13.8 mph 20.7 mph N/A   Clear
10:53 AM 64.0 °F 36.0 °F 35% 29.91 in 10.0 mi NNW 11.5 mph 25.3 mph N/A   Clear
11:53 AM 64.9 °F 35.1 °F 33% 29.93 in 10.0 mi North 17.3 mph 21.9 mph N/A   Clear
12:53 PM 66.0 °F 33.1 °F 29% 29.94 in 10.0 mi NNW 15.0 mph 25.3 mph N/A   Clear
1:53 PM 68.0 °F 32.0 °F 26% 29.93 in 10.0 mi North 16.1 mph 23.0 mph N/A   Clear
2:53 PM 68.0 °F 30.0 °F 24% 29.91 in 10.0 mi NW 16.1 mph 25.3 mph N/A   Clear
3:53 PM 69.1 °F 30.9 °F 24% 29.91 in 10.0 mi NNW 12.7 mph 20.7 mph N/A   Clear
4:53 PM 69.1 °F 30.0 °F 23% 29.91 in 10.0 mi NNW 17.3 mph 24.2 mph N/A   Clear
5:53 PM 66.9 °F 30.9 °F 26% 29.92 in 10.0 mi NNW 9.2 mph 21.9 mph N/A   Clear
6:53 PM 64.0 °F 30.9 °F 29% 29.95 in 10.0 mi North 11.5 mph 20.7 mph N/A   Clear
7:53 PM 62.1 °F 30.0 °F 30% 29.99 in 10.0 mi North 9.2 mph - N/A   Clear
8:53 PM 59.0 °F 30.9 °F 35% 29.99 in 10.0 mi North 9.2 mph - N/A   Clear
9:53 PM 57.9 °F 30.9 °F 36% 30.06 in 10.0 mi North 4.6 mph - N/A   Clear
10:53 PM 55.9 °F 30.9 °F 39% 30.11 in 10.0 mi Calm Calm - N/A   Clear
11:53 PM 54.0 °F 30.9 °F 41% 30.13 in 10.0 mi NNW 3.5 mph - N/A   Clear
12:53 AM 51.1 °F 32.0 °F 48% 30.13 in 10.0 mi Calm Calm - N/A   Clear